[[{"header":{"parameterUnit":"m.s-1","parameterCategory":1,"la1":30.2991,"la2":30.254,"lo1":-89.0895,"lo2":-89.0444,"dy":0.0017,"dx":0.0017,"nx":28,"ny":28,"refTime":"2025-02-07T03:00:00:Z","depth":0,"parameterNumber":2,"parameterNumberName":"U-component_of_WINDS"},"data":[0,0,0,0,0,0,0,0,0,0,0,0,0,0,0,0,0,0,0,0,0,0,0,0,0,0,0,0,0,0,0,0,0,0,0,0,0,0,0,0,0,0,0,0,0,0,0,0,0,0,0,0,0,0,0,0,0,0,-1.1189,-1.119,0,-1.1277,-1.1278,-1.1279,-1.1324,-1.1324,-1.1324,-1.1324,-1.1415,-1.1417,-1.1419,0,0,0,0,0,0,0,0,0,0,0,0,0,-1.106,-1.1062,-1.1189,-1.119,-1.1191,-1.1277,-1.1278,-1.128,-1.1324,-1.1324,-1.1324,-1.1324,-1.1414,-1.1417,-1.142,0,0,0,0,0,0,0,0,0,0,0,0,0,-1.1129,-1.1063,-1.1189,-1.1224,-1.1228,-1.1277,-1.1279,-1.128,-1.1324,-1.1324,-1.1324,-1.1324,-1.1413,-1.1417,-1.142,-1.1441,0,0,-1.1431,-1.1433,0,0,0,0,0,0,0,0,-1.1125,-1.1134,-1.1218,-1.1222,-1.1226,-1.129,-1.1266,-1.1334,-1.1324,-1.1288,-1.1324,-1.1324,-1.1373,-1.138,-1.1397,-1.1446,-1.145,-1.1431,-1.1434,-1.1435,-1.1436,0,0,0,0,0,0,0,-1.112,-1.113,-1.1224,-1.1219,-1.1224,-1.1235,-1.1245,-1.1279,-1.1329,-1.1291,-1.1294,-1.1304,-1.1376,-1.1393,-1.1399,-1.1451,-1.1431,-1.1434,-1.1437,-1.1438,-1.1522,-1.1523,0,0,0,0,0,0,-1.111,-1.1126,-1.1221,-1.1227,-1.1175,-1.1238,-1.1249,-1.1269,-1.1329,-1.1338,-1.1304,-1.1306,-1.1387,-1.1395,-1.1402,-1.1432,-1.1435,-1.1438,-1.1441,-1.1522,-1.1522,-1.1523,0,0,0,0,0,0,-1.1107,-1.1118,-1.1218,-1.1177,-1.1191,-1.124,-1.1263,-1.1271,-1.1289,-1.1339,-1.1348,-1.1312,-1.1387,-1.1397,-1.1431,-1.1435,-1.144,-1.1443,-1.1522,-1.1522,-1.1522,-1.149,0,0,0,0,0,0,-1.1103,-1.1116,-1.1125,-1.1177,-1.1193,-1.1245,-1.1263,-1.1273,-1.1295,-1.1298,-1.1349,-1.1358,-1.1388,-1.1426,-1.1435,-1.144,-1.1446,-1.1522,-1.1522,-1.1522,-1.1491,-1.1489,-1.1487,0,0,0,0,0,-1.1098,-1.1112,-1.1125,-1.1136,-1.1204,-1.1245,-1.1254,-1.1289,-1.1295,-1.1304,-1.1336,-1.1356,-1.1433,-1.1429,-1.144,-1.1446,-1.1522,-1.1522,-1.1522,-1.1491,-1.1489,-1.1487,0,0,0,0,0,0,-1.106,-1.112,-1.1135,-1.1166,-1.12,-1.1253,-1.1265,-1.1285,-1.1318,-1.132,-1.1361,-1.1372,-1.1403,-1.1428,-1.1422,-1.147,-1.148,-1.1482,-1.1452,-1.1451,-1.1449,-1.1442,-1.1449,0,0,0,0,0,-1.1055,-1.1082,-1.1134,-1.1157,-1.1173,-1.1216,-1.1235,-1.1258,-1.1295,-1.131,-1.1345,-1.138,-1.1413,-1.1433,-1.1465,-1.1494,-1.1506,-1.1504,-1.1502,-1.1501,-1.1502,-1.152,-1.1519,-1.1523,-1.1523,-1.1523,0,0,-1.1045,-1.1081,-1.1096,-1.115,-1.1179,-1.1207,-1.1228,-1.1257,-1.1278,-1.1315,-1.1349,-1.1376,-1.1418,-1.1449,-1.1465,-1.1471,-1.1504,-1.1501,-1.1499,-1.1502,-1.152,-1.1519,-1.1519,-1.1523,-1.1523,-1.1523,0,0,-1.1042,-1.1072,-1.1094,-1.1123,-1.1167,-1.1195,-1.12,-1.125,-1.1269,-1.1304,-1.1332,-1.1358,-1.1413,-1.1442,-1.1464,-1.1471,-1.1491,-1.1481,-1.1471,-1.1488,-1.1487,-1.1487,-1.149,-1.1491,-1.1482,-1.1482,-1.1482,0,-1.1024,-1.1067,-1.1103,-1.1131,-1.1153,-1.1187,-1.121,-1.1237,-1.1289,-1.1304,-1.131,-1.1379,-1.141,-1.1449,-1.1451,-1.1467,-1.1475,-1.1475,-1.1485,-1.1485,-1.1485,-1.1489,-1.149,-1.148,-1.1481,-1.1481,-1.1481,0,-1.1044,-1.1073,-1.1086,-1.1135,-1.1159,-1.1184,-1.1224,-1.1245,-1.1266,-1.1294,-1.1329,-1.1367,-1.1408,-1.1419,-1.144,-1.1461,-1.1464,-1.1477,-1.1487,-1.1483,-1.1487,-1.1488,-1.1478,-1.1479,-1.1479,-1.148,0,0,-1.1019,-1.1087,-1.1091,-1.1114,-1.1165,-1.1189,-1.1215,-1.1255,-1.1271,-1.1306,-1.133,-1.1375,-1.1388,-1.1412,-1.1437,-1.1452,-1.1455,-1.1463,-1.1465,-1.146,-1.1481,-1.1471,-1.1472,-1.1469,-1.1469,-1.1469,-1.1478,0,-1.1023,-1.1072,-1.1105,-1.1141,-1.1169,-1.1201,-1.1225,-1.1258,-1.1285,-1.1313,-1.1343,-1.1374,-1.1388,-1.1403,-1.1419,-1.1451,-1.146,-1.1451,-1.1492,-1.1493,-1.148,-1.1474,-1.1464,-1.147,-1.1479,-1.148,-1.148,0,-1.1034,-1.1067,-1.1106,-1.1154,-1.1167,-1.1187,-1.1226,-1.1252,-1.1291,-1.131,-1.1337,-1.1362,-1.1392,-1.14,-1.1442,-1.1435,-1.1454,-1.1472,-1.1473,-1.1478,-1.1486,-1.1479,-1.1472,-1.1473,-1.1483,-1.1482,-1.1482,0,-1.1012,-1.1067,-1.1097,-1.1115,-1.1172,-1.1185,-1.1209,-1.1248,-1.127,-1.1305,-1.1319,-1.1356,-1.1377,-1.1405,-1.144,-1.1443,-1.1479,-1.1489,-1.1495,-1.1494,-1.1502,-1.1501,-1.1497,-1.1513,-1.1513,-1.1513,-1.1513,0,-1.1013,-1.1035,-1.1088,-1.1106,-1.1133,-1.117,-1.1196,-1.1222,-1.1257,-1.1282,-1.1312,-1.1335,-1.138,-1.1408,-1.1435,-1.1466,-1.1475,-1.1491,-1.1498,-1.1488,-1.1486,-1.1501,-1.1502,-1.1513,-1.1513,-1.1513,-1.1513,0,-1.0993,-1.1029,-1.1064,-1.1114,-1.1127,-1.1144,-1.1188,-1.1207,-1.1236,-1.1267,-1.1276,-1.1321,-1.1356,-1.1393,-1.1441,-1.1459,-1.1489,-1.1498,-1.1475,-1.1479,-1.1483,-1.1482,-1.149,-1.1493,-1.1505,-1.1505,-1.1505,0,-1.0991,-1.1009,-1.1061,-1.108,-1.1103,-1.1132,-1.1155,-1.1193,-1.1215,-1.1261,-1.1275,-1.1312,-1.1343,-1.1398,-1.1435,-1.1471,-1.1482,-1.1482,-1.1488,-1.1478,-1.1483,-1.1481,-1.1483,-1.148,-1.148,-1.148,-1.148,0,-1.0984,-1.1001,-1.1032,-1.1069,-1.1094,-1.1125,-1.1158,-1.1171,-1.1216,-1.1239,-1.1275,-1.1299,-1.1348,-1.1384,-1.1425,-1.1451,-1.1473,-1.1478,-1.1481,-1.1471,-1.1457,-1.1465,-1.147,-1.1477,-1.1478,-1.1478,-1.1478,-1.1478,-1.0973,-1.0991,-1.103,-1.1063,-1.1092,-1.1121,-1.1142,-1.1173,-1.1203,-1.1245,-1.1266,-1.1302,-1.1341,-1.1398,-1.1423,-1.1452,-1.1459,-1.1463,-1.1465,-1.1465,-1.1463,-1.1452,-1.146,-1.146,-1.146,-1.146,-1.146,0,-1.0968,-1.0995,-1.1025,-1.1069,-1.1095,-1.1113,-1.115,-1.1171,-1.1202,-1.1236,-1.1267,-1.1308,-1.1343,-1.1383,-1.1421,-1.1437,-1.1448,-1.1446,-1.1445,-1.1451,-1.1455,-1.1448,-1.1436,-1.1436,-1.1436,-1.1436,-1.1436,-1.1436,-1.0968,-1.0999,-1.102,-1.1066,-1.1093,-1.1127,-1.1147,-1.1174,-1.1202,-1.1246,-1.1276,-1.1302,-1.1339,-1.138,-1.1413,-1.1424,-1.1437,-1.1432,-1.1445,-1.1448,-1.145,-1.1452,-1.1446,-1.1434,-1.1434,-1.1439,-1.1439,-1.1439]},{"header":{"parameterUnit":"m.s-1","parameterCategory":1,"la1":30.2991,"la2":30.254,"lo1":-89.0895,"lo2":-89.0444,"dy":0.0017,"dx":0.0017,"nx":28,"ny":28,"refTime":"2025-02-07T03:00:00:Z","depth":0,"parameterNumber":3,"parameterNumberName":"V-component_of_WINDS"},"data":[0,0,0,0,0,0,0,0,0,0,0,0,0,0,0,0,0,0,0,0,0,0,0,0,0,0,0,0,0,0,0,0,0,0,0,0,0,0,0,0,0,0,0,0,0,0,0,0,0,0,0,0,0,0,0,0,0,0,3.0163,3.0164,0,3.0254,3.0255,3.0256,3.0264,3.0263,3.0262,3.0261,3.0354,3.0357,3.0361,0,0,0,0,0,0,0,0,0,0,0,0,0,2.9995,2.9998,3.0162,3.0164,3.0165,3.0254,3.0255,3.0256,3.0264,3.0263,3.0262,3.0261,3.0353,3.0357,3.0361,0,0,0,0,0,0,0,0,0,0,0,0,0,3.0075,2.9999,3.0162,3.0179,3.0182,3.0254,3.0255,3.0257,3.0264,3.0263,3.0261,3.026,3.0352,3.0357,3.0362,3.0423,0,0,3.0377,3.0379,0,0,0,0,0,0,0,0,3.0071,3.0081,3.0176,3.0178,3.0181,3.0246,3.023,3.0312,3.0265,3.0233,3.0261,3.0259,3.0319,3.0327,3.0347,3.0427,3.0431,3.0378,3.0381,3.0383,3.0384,0,0,0,0,0,0,0,3.0065,3.0077,3.0199,3.0177,3.018,3.0183,3.0192,3.0246,3.0283,3.0236,3.0236,3.0247,3.0321,3.0342,3.035,3.0432,3.0378,3.0382,3.0385,3.0387,3.0569,3.0571,0,0,0,0,0,0,3.0056,3.0073,3.0196,3.0201,3.0121,3.0187,3.0198,3.0227,3.0283,3.029,3.0248,3.0247,3.0335,3.0344,3.0353,3.043,3.0383,3.0388,3.0391,3.0568,3.057,3.0572,0,0,0,0,0,0,3.0053,3.0067,3.0192,3.0137,3.0154,3.0191,3.0224,3.0229,3.0251,3.0292,3.0299,3.0264,3.0334,3.0346,3.0406,3.0434,3.039,3.0395,3.0565,3.0568,3.0571,3.0584,0,0,0,0,0,0,3.0048,3.0066,3.0089,3.0138,3.0156,3.0243,3.0225,3.0232,3.026,3.026,3.0309,3.0315,3.0334,3.0398,3.0411,3.044,3.0399,3.0563,3.0567,3.057,3.0581,3.0587,3.0592,0,0,0,0,0,3.0042,3.0089,3.009,3.0105,3.0186,3.0245,3.0256,3.0276,3.0262,3.0287,3.0313,3.0314,3.0428,3.0404,3.0419,3.045,3.0562,3.0566,3.057,3.0579,3.0586,3.0592,0,0,0,0,0,0,3.0041,3.0095,3.0098,3.0162,3.0199,3.0246,3.0277,3.0282,3.0323,3.0321,3.0344,3.0355,3.0415,3.0438,3.041,3.0513,3.0493,3.0501,3.0496,3.0503,3.0508,3.0502,3.0403,0,0,0,0,0,3.0049,3.0092,3.0136,3.0189,3.0207,3.0239,3.0265,3.0278,3.0317,3.0333,3.0363,3.0402,3.0446,3.0475,3.0518,3.0584,3.0596,3.0613,3.0618,3.0622,3.0628,3.0667,3.0676,3.0585,3.0585,3.0585,0,0,3.0064,3.0099,3.0125,3.0189,3.022,3.0265,3.0252,3.0299,3.0333,3.034,3.0399,3.0423,3.0467,3.0531,3.0561,3.0552,3.0656,3.0627,3.063,3.0634,3.0672,3.0681,3.0689,3.0587,3.0587,3.0587,0,0,3.0117,3.0146,3.0194,3.0225,3.0272,3.0293,3.0304,3.0351,3.0368,3.0428,3.0435,3.0475,3.0551,3.0583,3.0609,3.0675,3.0678,3.0688,3.0716,3.0753,3.0761,3.0767,3.0793,3.0802,3.0694,3.0694,3.0694,0,3.0131,3.0199,3.0218,3.0267,3.0296,3.0304,3.0354,3.0382,3.044,3.046,3.045,3.0547,3.0577,3.065,3.0666,3.0686,3.0701,3.0683,3.0758,3.0765,3.0771,3.0796,3.0806,3.0695,3.0695,3.0695,3.0695,0,3.0215,3.0262,3.0295,3.0352,3.0384,3.0433,3.0461,3.0491,3.0501,3.0523,3.0585,3.0622,3.0674,3.0691,3.07,3.0766,3.076,3.0753,3.0735,3.0781,3.0805,3.0814,3.0697,3.0696,3.0696,3.0696,0,0,3.027,3.0338,3.035,3.0377,3.0429,3.0466,3.0516,3.0567,3.0594,3.0633,3.0677,3.0741,3.0736,3.0766,3.0779,3.0812,3.0865,3.0802,3.0803,3.0814,3.0943,3.095,3.096,3.0867,3.0868,3.087,3.094,0,3.033,3.0419,3.0439,3.0516,3.0561,3.0569,3.0612,3.0649,3.0672,3.0713,3.0738,3.0785,3.0773,3.0791,3.0824,3.0852,3.0892,3.0846,3.0909,3.0911,3.09,3.0972,3.0979,3.1044,3.0949,3.0951,3.0952,0,3.0412,3.0456,3.0537,3.0585,3.0605,3.0643,3.0694,3.0732,3.0775,3.0789,3.0823,3.0833,3.0886,3.0863,3.0937,3.0906,3.0932,3.095,3.0953,3.0962,3.0936,3.0986,3.1065,3.1075,3.0967,3.0966,3.0964,0,3.0448,3.0526,3.0586,3.0608,3.0665,3.0693,3.0718,3.0759,3.0789,3.0832,3.0853,3.0901,3.0928,3.0966,3.0989,3.097,3.1062,3.104,3.1077,3.1076,3.1098,3.1097,3.1185,3.111,3.111,3.111,3.111,0,3.0515,3.0565,3.0603,3.064,3.0697,3.0719,3.0775,3.08,3.0837,3.0879,3.0888,3.0928,3.0955,3.0999,3.1017,3.1077,3.1088,3.1102,3.1107,3.1103,3.1102,3.1123,3.112,3.1112,3.1112,3.1111,3.1111,0,3.0566,3.0593,3.0659,3.0708,3.0721,3.0761,3.0803,3.084,3.0862,3.0916,3.093,3.0966,3.1018,3.1044,3.1108,3.1121,3.119,3.119,3.1176,3.1178,3.1214,3.1212,3.1321,3.1338,3.1249,3.125,3.1251,0,3.0608,3.0647,3.0701,3.073,3.0756,3.0803,3.0835,3.0858,3.089,3.0943,3.0974,3.1026,3.107,3.1153,3.1185,3.1235,3.1238,3.1273,3.1246,3.1242,3.1243,3.1241,3.1246,3.1279,3.128,3.128,3.1281,0,3.0681,3.0693,3.0738,3.0789,3.0826,3.0867,3.0907,3.093,3.096,3.0996,3.105,3.1084,3.1151,3.1204,3.1256,3.1282,3.1288,3.1289,3.1301,3.1299,3.129,3.1298,3.1192,3.1287,3.1286,3.1286,3.1286,3.1285,3.0731,3.0767,3.0811,3.0862,3.0895,3.0932,3.097,3.0997,3.1043,3.11,3.111,3.1168,3.1211,3.1283,3.131,3.1356,3.1349,3.1365,3.137,3.1374,3.1377,3.128,3.1366,3.1365,3.1365,3.1365,3.1365,0,3.0807,3.0836,3.0882,3.0939,3.0979,3.098,3.1024,3.1058,3.1109,3.1149,3.1192,3.1255,3.1307,3.1343,3.1396,3.1426,3.143,3.144,3.1439,3.1446,3.1379,3.1366,3.1436,3.1436,3.1436,3.1436,3.1436,3.1436,3.0852,3.0914,3.0932,3.1011,3.1039,3.1096,3.1122,3.1157,3.119,3.126,3.1303,3.1326,3.1365,3.1421,3.1469,3.1479,3.1499,3.1509,3.1519,3.1457,3.145,3.1443,3.143,3.1513,3.1513,3.1582,3.1582,3.1583]}]]